Location: ?
(35.4554°N, 139.3092°E)
Time: 22:36:03
(UTC+00:00)

Cosmos 2227 Rocket - Pass Details

Date: 21 April 2021
Orbit: 840 x 844 km, 71.0° (Epoch: 10 May)

Event Time Altitude Azimuth Distance (km) Brightness Sun altitude
Rises 12:17:53 0° 230° (SW) 3,388 5.4 -31.6°
Reaches altitude 10° 12:20:40 10° 242° (WSW) 2,457 4.7 -32.0°
Maximum altitude 12:25:26 28° 300° (WNW) 1,545 4.0 -32.6°
Drops below altitude 10° 12:30:13 10° 358° (N) 2,466 5.2 -33.3°
Sets 12:33:03 0° 10° (N) 3,404 5.9 -33.6°
